Location: Unspecified
(0.0000°N, 0.0000°E)
Time: 11:23:08
(UTC+00:00)

ISS - Visible Passes

Search period start: 20 May 2019 00:00
Search period end: 30 May 2019 00:00
Orbit: 407 x 410 km, 51.6° (Epoch: 20 May)

Date Brightness Start Highest point End Pass type
(mag) Time Alt. Az. Time Alt. Az. Time Alt. Az.
21 May -3.6 04:58:28 10° NNW 05:01:45 75° NE 05:05:02 10° SE visible
22 May -1.6 04:09:16 18° N 04:10:54 26° NE 04:13:43 10° ESE visible
23 May -2.3 04:57:17 20° SSW 04:57:17 20° SSW 04:59:03 10° S visible
